Weather History for Knoxville, TN

Change the Weather History Date:

Wednesday, November 6, 2013

  Actual Average Record
Temperature  
Mean Temperature 62 °F 53 °F  
Max Temperature 77 °F 64 °F 79 °F (2005)
Min Temperature 47 °F 42 °F 25 °F (1991)
Degree Days  
Heating Degree Days 3 12  
Month to date heating degree days 49 69  
Since 1 July heating degree days 204 288  
Cooling Degree Days 0 0  
Month to date cooling degree days 0 0  
Year to date cooling degree days 1445 1523  
Growing Degree Days 12 (Base 50)    
Moisture  
Dew Point 46 °F    
Average Humidity 56    
Maximum Humidity 71    
Minimum Humidity 41    
Precipitation  
Precipitation 0.00 in 0.12 in 1.96 in (1885)
Month to date precipitation 0.37 0.69  
Year to date precipitation 57.08 40.04  
Snow  
Snow 0.00 in 0.00 in - ()
Month to date snowfall 0.0 0.0  
Since 1 July snowfall 0.0 0.0  
Since 1 September snowfall 0.0 0.0  
Snow Depth 0.00 in    
Sea Level Pressure  
Sea Level Pressure 30.18 in    
Wind  
Wind Speed 5 mph (SW)    
Max Wind Speed 22 mph    
Max Gust Speed 28 mph    
Visibility 10 miles    
Events      
T = Trace of Precipitation, MM = Missing Value Source: NWS Daily Summary

Daily Weather History Graph

Daily Weather History Graph

Search for Another Location

Airport:

Trip Planner

Search our weather history database for the weather conditions in past years. The results will help you decide how hot, cold, wet, or windy it might be!

Date:

Astronomy

Nov. 06, 2013 Rise Set
Actual Time 7:03 AM EST 5:35 PM EST
Civil Twilight 6:36 AM EST 6:02 PM EST
Nautical Twilight 6:06 AM EST 6:32 PM EST
Astronomical Twilight 5:36 AM EST 7:02 PM EST
Moon 10:14 AM EST (11/6) 8:41 PM EST (11/6)
Length of Visible Light 11h 25m
Length of Day
10h 32m
Waxing Crescent, 13% of the Moon is Illuminated
Nov 6
Waxing Crescent
Nov 10
First Quarter
Nov 17
Full
Nov 25
Last Quarter
Dec 2
New

Hourly Weather History & Observations

Time (EST) Temp. Dew Point Humidity Pressure Visibility Wind Dir Wind Speed Gust Speed Precip Events Conditions
12:53 AM 52.0 °F 39.9 °F 63% 30.31 in 10.0 mi North 4.6 mph - N/A   Scattered Clouds
1:53 AM 51.1 °F 41.0 °F 68% 30.29 in 10.0 mi Variable 3.5 mph - N/A   Overcast
2:53 AM 51.1 °F 39.0 °F 63% 30.28 in 10.0 mi NE 3.5 mph - N/A   Overcast
3:53 AM 53.1 °F 36.0 °F 52% 30.27 in 10.0 mi NNE 4.6 mph - N/A   Overcast
4:53 AM 48.9 °F 39.9 °F 71% 30.27 in 10.0 mi ENE 3.5 mph - N/A   Scattered Clouds
5:53 AM 51.1 °F 39.0 °F 63% 30.26 in 10.0 mi Calm Calm - N/A   Overcast
6:53 AM 50.0 °F 37.9 °F 63% 30.25 in 10.0 mi Calm Calm - N/A   Mostly Cloudy
7:53 AM 53.1 °F 39.9 °F 61% 30.25 in 10.0 mi NE 3.5 mph - N/A   Mostly Cloudy
8:53 AM 55.0 °F 42.1 °F 62% 30.25 in 10.0 mi Calm Calm - N/A   Mostly Cloudy
9:53 AM 61.0 °F 43.0 °F 52% 30.25 in 10.0 mi Calm Calm - N/A   Scattered Clouds
10:53 AM 63.0 °F 46.0 °F 54% 30.24 in 10.0 mi Variable 3.5 mph - N/A   Mostly Cloudy
11:53 AM 66.9 °F 48.0 °F 51% 30.22 in 10.0 mi Calm Calm - N/A   Mostly Cloudy
12:53 PM 73.0 °F 50.0 °F 44% 30.17 in 10.0 mi Calm Calm - N/A   Mostly Cloudy
1:53 PM 75.9 °F 51.1 °F 42% 30.14 in 10.0 mi SW 16.1 mph - N/A   Scattered Clouds
2:53 PM 75.0 °F 50.0 °F 41% 30.12 in 10.0 mi South 5.8 mph - N/A   Scattered Clouds
3:53 PM 75.0 °F 51.1 °F 43% 30.10 in 10.0 mi SSW 16.1 mph 24.2 mph N/A   Scattered Clouds
4:53 PM 73.0 °F 51.1 °F 46% 30.09 in 10.0 mi SSW 13.8 mph - N/A   Partly Cloudy
5:53 PM 70.0 °F 51.1 °F 51% 30.09 in 10.0 mi SSW 12.7 mph - N/A   Scattered Clouds
6:53 PM 68.0 °F 51.1 °F 55% 30.09 in 10.0 mi South 8.1 mph - N/A   Overcast
7:53 PM 66.0 °F 52.0 °F 60% 30.08 in 10.0 mi SSW 5.8 mph - N/A   Mostly Cloudy
8:53 PM 63.0 °F 51.1 °F 65% 30.07 in 10.0 mi West 3.5 mph - N/A   Scattered Clouds
9:53 PM 63.0 °F 52.0 °F 67% 30.06 in 10.0 mi West 5.8 mph - N/A   Scattered Clouds
10:53 PM 64.0 °F 53.1 °F 67% 30.06 in 10.0 mi WSW 8.1 mph - N/A   Mostly Cloudy
11:53 PM 64.9 °F 53.1 °F 65% 30.04 in 10.0 mi WSW 5.8 mph - N/A   Overcast